Location: *
(52.2090°N, 4.1550°W)
Time: 22:31:23
(UTC+00:00)

ATLAS CENTAUR R/B - Pass Details

Date: 19 July 2019
Orbit: 446 x 703 km, 64.7° (Epoch: 25 July)

Event Time Altitude Azimuth Distance (km) Brightness Sun altitude
Rises 22:31:54 0° 316° (NW) 3,063 6.7 -13.1°
Reaches altitude 10° 22:34:18 10° 318° (NW) 2,120 5.6 -13.3°
Maximum altitude 22:39:09 76° 45° (NE) 671 1.7 -13.6°
Enters shadow 22:42:22 19° 129° (SE) 1,486 3.0 -13.8°
